Wind_Speed
11 11 11 11 10 10 10 10 11 12 12 13 14 15 16 16 16 16 15 15 14 14 13 13 12 12 12 13 12 12 12 11 10 10 9 10 10 11 11 12 12 12 12 12 12 13 11 9 8 7 7 6 7 7 7 6 6 6 7 7 8 10 10 10 10 10 11 11 11 11 11 12 12 13 14 16 17 17 18 19 19 18 16 15 15 15 14 14
12 12 12 12 12 12 12 11 11 11 12 13 14 14 15 16 16 16 16 15 15 14 14 13 12 12 12 12 12 12 11 11 10 9 9 10 10 10 11 11 12 12 12 12 13 13 13 12 10 9 8 7 6 7 7 7 7 7 8 9 10 11 11 10 10 11 11 12 12 12 13 13 14 15 16 18 19 19 20 20 19 19 17 16 15 15 15 14
13 13 13 14 14 14 13 13 13 13 13 13 13 14 14 15 15 16 15 15 15 14 14 13 13 12 12 11 12 12 11 12 10 8 9 10 10 10 10 11 11 11 11 11 11 12 13 13 13 12 10 8 7 7 8 8 8 8 9 10 11 11 11 11 12 12 12 12 13 14 14 15 16 17 19 20 20 22 21 19 19 19 17 17 17 16 15 15
14 14 14 15 15 15 15 15 15 15 15 14 14 14 13 13 14 15 15 15 14 14 14 13 13 13 12 12 12 12 12 12 10 8 10 10 10 10 10 11 11 11 10 10 10 10 11 12 12 13 12 10 9 9 9 9 9 9 10 11 11 11 12 12 12 13 12 12 13 14 16 16 17 19 21 21 23 24 21 19 19 19 19 18 18 17 16 17
15 15 15 15 15 16 16 16 16 16 16 16 16 15 14 13 13 15 15 15 14 14 13 13 13 13 13 12 12 12 12 12 10 10 11 10 10 10 10 11 11 11 11 10 10 10 10 11 12 12 12 11 10 10 10 10 10 10 10 10 10 10 11 12 12 12 13 13 14 15 17 17 19 21 23 24 25 23 20 20 21 20 19 19 18 18 18 19
16 16 16 16 16 16 16 17 17 17 17 17 17 16 15 14 13 14 15 15 14 14 13 13 12 13 13 13 12 12 12 12 12 12 12 12 12 11 11 11 10 11 11 11 11 10 11 11 12 12 11 11 10 10 10 10 10 11 11 10 10 10 11 12 12 13 13 15 15 17 18 19 21 23 24 26 23 22 21 21 21 21 20 20 19 19 19 20
16 16 16 16 16 17 17 17 17 18 18 18 17 16 16 15 14 14 15 14 14 14 13 13 12 13 13 13 12 12 12 12 13 12 12 13 13 12 12 12 11 12 12 12 12 12 12 12 12 12 12 12 10 10 10 10 10 11 10 10 10 11 11 12 13 13 15 16 17 18 19 19 21 24 25 23 20 21 22 21 21 21 21 21 21 21 21 23
17 16 16 16 17 17 17 17 17 18 17 17 17 16 15 15 15 15 15 14 14 14 13 13 12 12 12 12 12 11 11 12 12 12 13 13 13 13 13 13 13 13 13 13 13 13 14 13 13 13 13 13 12 11 11 11 11 10 10 11 10 11 12 12 13 14 15 16 17 19 18 19 21 24 23 17 16 19 20 20 20 21 22 24 24 24 24 25
17 17 17 17 17 17 17 17 17 17 18 17 17 16 15 15 14 14 15 14 13 13 13 13 12 12 12 12 11 11 11 11 12 12 13 13 13 13 14 14 14 15 15 15 15 14 15 15 15 15 15 14 13 13 13 13 11 9 11 12 12 12 12 12 12 13 15 15 17 19 19 19 20 24 18 11 13 17 17 20 21 22 24 25 26 27 27 28
18 18 18 18 18 18 18 17 18 18 18 18 17 17 16 15 15 14 14 14 13 13 13 13 13 12 12 12 12 11 11 12 12 12 13 14 14 14 14 14 15 16 16 17 17 16 16 17 16 16 16 15 15 15 15 14 12 11 13 14 14 15 15 14 13 13 14 15 17 19 20 19 21 23 15 10 14 17 18 21 21 23 25 26 27 28 29 29
20 19 19 19 19 19 19 18 18 18 19 19 18 18 17 16 15 15 15 14 14 14 14 13 13 13 12 12 12 12 12 12 12 13 14 14 14 14 14 14 15 16 18 19 19 18 18 18 18 18 17 16 17 17 16 14 14 15 15 15 15 16 16 16 15 15 15 15 17 20 23 22 21 20 14 13 17 18 20 21 22 24 25 27 29 29 30 30
21 21 21 20 20 20 20 20 20 19 19 19 19 19 19 17 16 16 16 15 15 15 15 14 14 14 14 13 13 13 13 12 13 14 14 13 13 13 13 14 16 17 18 19 20 20 20 20 19 19 18 18 18 17 16 16 17 18 17 17 17 17 17 16 16 16 16 17 18 20 26 27 22 17 15 18 20 19 22 22 23 25 27 29 30 31 32 31
22 22 22 22 22 21 21 21 21 21 20 21 21 21 21 19 18 18 18 17 16 16 16 16 15 15 15 14 14 15 14 14 14 14 13 13 13 13 15 17 18 18 19 20 21 21 22 22 21 20 20 19 19 18 18 18 18 18 19 20 19 18 16 15 15 17 17 19 19 19 27 31 24 19 19 20 21 23 24 25 25 27 29 31 32 33 34 33
22 23 23 23 23 22 22 22 22 22 22 22 22 23 23 21 20 20 20 19 18 18 17 17 17 17 17 16 15 16 16 15 15 14 14 13 13 15 17 19 19 20 21 22 22 22 23 23 22 22 21 20 20 20 19 19 19 19 20 20 19 19 17 17 17 19 20 20 21 19 27 35 28 23 23 22 24 26 28 28 28 30 31 33 34 35 35 34
22 23 23 23 23 23 23 23 23 22 23 23 24 24 25 24 23 22 21 21 20 19 19 19 19 19 20 18 17 17 17 16 15 14 14 13 15 18 19 19 21 22 23 24 24 24 24 24 24 23 23 22 21 20 19 20 20 20 20 19 19 21 22 22 21 21 21 21 22 20 26 35 31 26 27 26 27 29 31 31 30 32 33 34 36 36 36 34
23 23 23 23 23 24 24 24 23 23 23 24 25 25 26 26 25 25 24 23 22 21 21 21 20 20 21 19 18 18 17 17 15 14 14 16 19 19 19 21 23 24 25 26 26 25 25 25 25 25 24 23 22 21 21 21 21 19 19 20 22 23 25 26 24 23 22 22 26 25 28 36 34 30 29 29 30 31 33 33 32 33 34 34 35 35 34 33
24 24 24 24 23 24 24 24 25 25 24 25 26 26 27 28 28 28 27 26 25 23 23 23 22 23 23 21 21 20 18 16 15 16 18 19 20 20 21 23 24 25 26 27 27 27 27 26 26 26 25 24 23 22 20 21 21 19 21 23 24 25 26 28 27 26 25 26 29 30 34 39 36 33 32 31 31 32 34 34 34 34 34 33 32 32 32 31
26 26 25 25 25 24 24 25 25 26 25 26 27 26 27 29 29 30 29 29 28 27 26 25 24 24 22 19 18 17 15 16 17 20 21 21 21 22 23 24 24 26 28 29 29 28 28 28 28 28 28 27 25 23 22 21 22 22 22 24 27 28 29 30 29 28 28 29 32 34 38 41 39 35 34 33 32 34 35 36 35 34 32 29 30 30 29 29
29 28 27 27 26 26 26 26 25 26 26 26 28 28 29 29 30 31 31 31 30 29 27 25 24 24 22 19 18 18 18 19 21 23 23 23 24 24 23 24 26 27 29 31 31 30 30 29 30 32 31 28 25 24 25 25 25 24 23 25 28 31 33 33 31 29 30 32 35 37 39 42 41 37 35 35 35 35 36 37 36 32 28 28 29 28 28 28
31 30 29 28 28 27 27 27 26 26 26 27 27 28 29 30 31 31 31 32 32 31 29 28 28 28 27 25 24 23 23 23 24 25 26 25 25 25 26 26 27 28 30 31 31 31 30 30 32 33 29 25 25 26 27 26 26 25 24 26 29 33 35 33 31 32 33 35 38 38 39 43 44 40 37 35 37 38 37 36 32 27 27 29 29 28 27 26
33 32 31 30 30 29 29 29 28 27 27 27 27 28 29 30 32 33 33 33 33 32 32 32 32 32 30 28 27 26 26 26 28 28 27 27 27 28 28 28 29 30 31 31 31 31 30 31 31 28 26 24 25 26 27 27 27 26 25 27 31 34 35 32 32 35 34 35 39 40 42 47 47 43 39 36 38 36 29 28 27 25 28 29 27 28 27 24
33 33 32 32 31 31 31 30 29 28 28 28 28 28 28 29 31 32 35 36 35 34 34 34 34 34 32 31 30 29 29 30 30 30 29 30 30 30 30 30 30 31 31 31 31 30 30 30 27 24 25 25 26 27 28 29 29 26 26 29 32 34 34 33 33 35 36 36 41 42 46 51 50 47 44 38 32 24 20 24 27 26 26 26 26 26 26 24
34 33 32 32 32 32 32 32 30 30 29 29 29 29 29 30 30 32 34 38 39 36 35 36 35 35 34 33 33 32 33 34 33 32 32 33 32 32 33 31 31 30 30 30 29 28 28 26 23 22 23 24 24 25 26 29 29 28 29 31 34 33 32 33 34 36 37 37 40 42 49 57 53 46 41 32 19 14 22 28 24 22 23 24 25 23 23 23
36 34 33 33 32 33 33 33 32 31 30 30 30 29 30 30 31 32 34 39 42 39 37 36 36 36 35 35 35 36 36 36 36 35 34 34 34 34 33 30 29 28 26 26 26 27 26 25 25 25 25 25 24 24 27 30 31 31 32 33 34 32 30 34 36 36 36 37 38 39 48 55 44 28 24 22 19 20 28 27 20 21 24 25 24 22 23 23
38 37 35 34 33 33 34 34 33 32 31 31 31 31 31 31 32 33 34 39 42 41 39 37 35 36 36 36 36 37 38 38 37 37 36 35 34 34 32 28 27 25 22 23 26 28 26 24 27 27 27 28 28 28 30 32 34 34 33 32 32 30 31 34 35 34 33 31 29 27 30 32 23 10 12 23 33 34 28 23 21 21 23 24 24 24 24 22
39 39 38 36 34 34 35 35 33 32 32 32 32 32 31 32 32 33 35 37 40 41 37 34 33 32 33 33 33 33 36 37 36 35 35 33 32 32 29 26 24 23 22 24 26 27 26 25 28 29 28 28 30 31 31 32 34 34 32 32 30 31 33 34 34 32 27 22 24 23 19 25 30 26 28 35 40 37 27 22 20 19 22 24 23 24 22 19
40 40 39 38 37 36 37 36 34 33 33 32 32 33 33 33 33 33 32 27 27 30 27 26 26 27 27 27 27 28 29 30 28 27 27 26 26 26 25 24 23 23 24 25 25 25 27 27 26 27 27 28 29 31 30 30 31 33 33 30 30 33 34 34 34 31 30 32 30 28 26 30 40 42 38 35 32 34 31 22 18 19 22 21 20 22 20 18
40 40 40 39 38 37 37 36 35 35 34 34 34 34 34 35 35 34 27 13 9 12 12 14 15 16 18 19 19 22 24 24 23 21 20 21 23 23 25 25 25 26 26 27 28 28 29 29 27 27 27 28 30 30 28 27 29 32 33 31 32 34 33 34 34 30 35 34 24 30 30 21 34 44 34 27 29 33 31 22 23 26 21 18 20 23 20 19
38 39 40 39 38 38 37 36 35 34 33 34 34 34 35 35 36 32 21 9 6 10 12 14 15 16 19 20 19 20 21 22 23 23 23 24 26 27 27 26 26 27 28 30 32 31 31 31 29 29 30 31 31 30 30 29 30 33 34 34 32 33 32 32 31 31 33 24 19 36 33 15 28 41 28 26 31 29 28 28 28 23 16 18 26 25 19 20
37 38 38 38 38 38 38 37 35 34 33 32 31 32 33 34 33 25 15 11 11 14 16 16 19 22 24 25 25 25 25 25 26 27 27 28 29 30 29 28 28 28 29 31 33 33 34 35 34 33 33 33 34 33 33 33 33 35 35 34 32 31 30 28 30 29 21 15 23 38 35 21 19 24 23 27 28 27 33 32 22 14 16 23 30 24 18 21
39 39 38 38 37 37 37 37 36 35 34 32 30 30 29 31 31 19 11 16 19 20 23 22 24 27 27 28 29 28 28 29 29 29 30 31 31 32 31 29 28 29 31 34 35 35 36 37 37 36 34 35 36 36 36 36 37 37 34 32 28 21 18 18 18 15 6 9 22 29 25 22 21 23 29 31 28 32 35 25 15 16 21 29 27 20 19 23
40 40 40 39 37 37 37 36 35 34 34 34 31 30 29 26 29 28 19 16 14 12 17 22 25 27 25 26 28 27 28 29 29 29 31 32 34 36 33 31 30 27 28 33 34 34 38 39 37 35 35 36 37 37 37 38 38 39 35 29 18 7 8 8 4 4 6 12 24 25 15 19 36 46 45 41 37 33 27 24 24 27 28 27 21 19 22 26
39 40 40 40 40 38 38 37 35 34 34 34 32 32 29 20 23 32 30 23 15 10 11 14 16 18 20 25 28 26 27 29 28 28 31 34 37 38 35 35 35 31 29 32 29 26 30 35 35 35 34 35 37 36 36 37 37 36 32 24 14 3 2 4 3 3 8 14 23 23 15 18 36 46 41 35 29 23 29 39 38 33 28 23 21 23 26 29
38 39 39 40 40 39 39 38 37 37 35 35 34 32 30 27 24 25 28 32 31 26 25 22 19 21 24 29 29 27 28 29 29 30 32 35 38 39 39 38 37 37 37 36 30 24 22 27 32 31 29 30 30 28 29 32 33 32 27 22 19 15 9 6 4 3 6 15 18 12 10 15 25 34 36 29 22 23 37 44 35 30 27 22 26 28 28 32
39 39 39 39 38 37 38 37 37 38 36 37 36 34 38 42 35 30 33 38 37 35 36 35 33 32 32 33 31 30 30 31 33 33 34 38 40 41 42 39 37 38 38 34 30 28 27 33 37 32 30 29 26 26 29 29 29 29 26 23 25 28 24 15 12 14 11 14 15 13 19 36 44 51 53 42 34 34 38 38 32 30 28 27 31 32 32 38
41 40 39 40 39 37 36 35 35 36 37 37 37 42 53 54 45 41 41 38 36 37 36 36 38 38 37 38 37 36 34 35 37 36 37 40 43 45 46 42 40 39 39 37 33 28 25 30 34 28 25 25 25 30 34 31 26 24 26 30 30 30 27 19 15 19 11 8 17 18 26 51 57 49 46 36 31 36 38 38 36 32 31 33 37 38 39 42
43 43 42 41 39 37 36 35 35 36 37 37 41 51 61 59 53 51 46 41 39 35 32 34 37 36 36 37 39 39 36 37 40 40 40 41 42 47 47 44 43 41 40 40 39 34 28 30 35 32 28 29 33 36 35 34 31 29 31 32 29 23 21 18 8 7 5 3 15 23 29 47 47 32 31 30 32 42 43 37 35 34 36 41 44 45 45 45
46 46 47 45 41 39 38 36 37 37 36 38 47 57 60 57 56 54 50 47 44 39 37 39 39 38 38 38 39 36 33 36 40 40 41 42 42 47 45 41 41 39 37 36 38 38 34 33 39 42 40 39 42 39 35 36 36 37 39 35 26 16 13 18 11 4 6 2 8 27 35 46 50 39 37 41 43 47 43 39 41 40 43 48 50 50 48 47
47 50 52 50 44 42 41 39 38 38 37 42 52 58 59 58 58 55 52 51 47 43 43 45 43 40 40 41 39 36 34 37 40 40 41 41 42 46 43 38 37 35 33 32 36 40 38 32 31 40 42 40 41 40 40 43 42 40 39 35 31 23 15 20 18 9 6 4 5 21 24 38 52 41 35 43 47 49 49 52 52 48 52 55 55 53 49 47
50 53 56 53 47 44 43 40 39 39 43 49 55 58 59 58 56 55 54 53 51 48 46 47 45 42 43 43 41 40 38 38 40 41 41 42 43 44 42 39 38 37 35 31 32 37 39 35 31 35 39 36 40 44 46 49 46 43 42 37 35 31 23 20 21 20 13 4 3 6 12 42 54 34 36 50 53 58 61 61 61 58 59 60 55 53 50 48
53 56 60 57 51 47 43 40 41 44 48 53 56 58 59 57 55 55 53 52 51 49 47 46 45 44 46 46 45 44 41 40 42 41 43 46 46 45 45 42 40 38 36 32 32 34 37 38 37 40 42 43 48 51 49 46 43 40 41 40 39 38 32 16 12 25 27 17 14 5 8 50 62 41 52 67 62 66 68 66 68 65 61 59 55 53 53 54
54 57 59 56 52 49 45 44 45 46 51 56 56 56 56 55 55 55 54 53 51 49 48 47 48 48 47 47 47 46 43 43 46 45 45 48 49 49 49 46 42 38 33 30 31 34 35 37 37 40 44 47 50 50 45 40 36 34 34 37 37 39 39 26 14 24 30 29 29 11 5 50 76 62 67 74 67 69 70 68 69 64 61 60 57 58 59 59
56 57 56 53 52 50 46 44 45 48 53 56 55 54 54 55 55 54 53 53 51 50 49 49 51 50 49 50 49 48 47 47 49 50 49 50 53 54 51 48 46 40 35 32 31 30 31 32 32 34 41 47 52 51 43 34 29 30 34 37 37 39 43 40 36 34 26 25 26 7 3 51 83 74 70 71 68 69 70 69 69 66 66 65 63 63 62 61
57 59 58 56 52 47 45 48 52 54 55 55 53 53 53 54 55 55 55 53 52 52 52 52 52 50 49 49 48 50 49 46 46 48 48 50 54 54 50 48 46 43 42 41 37 32 30 32 30 24 22 30 38 35 29 28 29 34 40 39 38 41 41 42 45 39 26 28 28 11 11 55 79 74 70 71 69 71 73 72 71 71 71 68 66 66 65 64
56 58 58 58 54 48 48 53 54 54 55 55 55 54 53 54 55 55 55 55 54 54 53 52 51 50 49 48 48 51 51 48 46 45 47 51 54 53 51 47 44 45 44 42 41 38 34 35 35 26 15 15 21 22 21 25 30 35 40 40 38 41 41 43 47 38 23 24 28 23 34 65 78 74 72 72 72 74 75 73 72 72 71 69 68 68 68 67
56 59 57 56 55 53 56 56 51 51 54 54 55 55 54 56 57 56 56 56 56 56 55 54 52 50 49 49 49 51 53 53 51 50 54 57 55 52 50 47 45 43 41 39 40 39 37 38 41 42 39 36 40 44 40 34 31 34 37 37 38 41 44 46 47 44 33 21 27 48 62 67 71 74 76 75 74 74 75 73 72 72 70 71 70 69 69 68
58 61 61 58 51 47 54 57 54 54 55 54 55 56 57 58 57 55 56 56 56 56 55 55 55 54 53 53 52 54 56 54 53 56 61 60 57 53 49 46 43 40 40 38 36 38 40 41 44 49 52 53 56 59 55 47 44 45 44 45 48 49 48 50 52 54 46 26 30 62 70 58 63 76 79 77 75 75 75 74 73 72 71 71 70 68 68 66
57 60 63 63 56 51 54 58 58 57 56 55 56 56 57 58 58 57 57 57 57 57 54 54 57 58 59 58 56 55 53 50 51 57 60 58 56 54 50 46 44 44 43 40 37 39 42 44 48 51 53 56 58 59 58 54 52 53 50 51 58 55 50 53 56 59 59 47 49 64 60 52 64 78 80 78 76 75 76 75 74 73 71 70 68 67 67 64
55 58 61 63 64 63 63 63 60 56 53 53 55 56 56 57 58 57 56 55 58 58 57 59 60 60 61 60 56 53 49 48 52 55 55 53 51 51 49 47 48 47 44 41 39 38 41 46 48 49 49 52 55 56 54 51 51 56 55 56 63 60 53 55 59 64 70 68 67 66 57 58 73 81 81 77 75 76 78 75 73 71 69 68 67 67 66 61
57 59 61 63 65 65 65 64 61 57 54 52 53 55 56 57 57 55 54 55 58 59 61 62 59 58 58 55 51 52 54 55 56 54 51 48 46 45 42 41 41 39 36 37 37 35 40 45 45 44 42 44 53 55 49 45 50 54 54 61 67 61 55 59 67 72 70 65 66 66 61 67 80 81 78 75 75 77 76 73 71 70 69 68 66 64 61 56
56 56 58 61 64 65 65 64 62 60 59 57 58 60 61 61 60 58 57 59 59 59 61 60 57 55 55 52 50 54 58 56 54 53 51 49 47 44 42 40 41 39 37 38 37 36 40 43 44 40 34 40 53 52 44 44 45 45 51 64 67 59 57 65 72 72 65 58 59 59 60 72 82 78 73 74 75 73 71 72 73 71 70 68 65 60 54 49
51 48 49 57 63 63 63 65 63 61 62 64 64 65 65 64 63 60 59 60 60 60 59 59 58 55 55 56 55 53 52 51 49 48 46 47 49 49 48 48 48 47 46 44 41 39 39 40 42 38 31 40 51 49 43 37 27 29 50 62 61 59 61 67 73 72 65 58 56 59 68 78 79 74 72 75 74 70 71 74 73 71 70 67 61 54 48 46
Wind_Direction
286 289 292 293 295 296 297 300 302 305 308 310 315 319 323 326 328 329 331 333 336 339 342 345 347 349 352 354 356 358 359 360 360 6 6 2 7 6 5 7 5 7 7 4 6 6 5 6 0 350 347 338 325 317 314 313 313 311 299 289 287 288 290 290 289 283 285 288 286 284 277 274 273 273 277 278 281 287 290 292 296 300 301 298 294 292 293 292
280 285 289 292 294 295 297 298 300 302 305 307 309 312 317 320 323 325 326 327 328 330 332 333 334 336 338 340 343 344 345 347 347 353 356 356 357 356 359 1 2 3 3 2 3 3 357 1 5 359 357 348 333 322 316 315 310 307 301 295 294 294 296 294 291 289 289 288 287 284 279 279 277 277 279 281 285 287 289 295 299 300 299 295 291 291 292 293
275 280 284 288 291 294 295 297 299 302 304 306 308 309 312 315 319 321 321 322 322 323 324 325 326 325 326 328 330 331 332 334 334 337 342 343 346 349 349 353 356 356 358 357 359 360 354 356 360 358 358 355 347 339 331 323 313 307 302 300 300 301 301 299 298 296 295 293 287 284 282 281 281 281 282 285 287 287 292 301 299 296 295 292 291 292 292 293
270 275 278 283 286 290 293 295 298 300 303 305 308 310 310 312 315 317 318 318 318 318 318 319 319 319 319 319 319 321 320 324 325 323 327 329 332 336 339 344 347 347 350 349 351 355 351 353 356 354 357 356 353 350 340 327 315 307 303 302 303 304 303 301 301 299 299 296 289 287 284 284 285 283 284 288 287 290 300 301 294 293 292 292 293 291 290 292
265 268 272 276 280 284 288 291 294 297 299 302 306 309 310 311 313 315 315 316 315 314 313 312 313 314 313 313 313 313 314 320 320 314 317 317 317 322 328 333 336 339 340 340 344 345 342 347 350 349 351 353 352 349 341 330 319 309 307 307 306 306 304 302 301 300 300 297 293 291 287 287 287 286 289 289 289 297 302 296 292 292 290 290 290 289 289 292
260 263 266 269 273 277 280 285 288 291 295 298 301 305 307 308 310 314 313 313 314 312 310 308 307 307 308 309 308 308 310 313 314 311 311 308 307 309 314 319 325 328 329 333 334 333 336 339 340 341 342 343 343 344 340 333 322 313 313 311 308 308 304 302 299 297 296 294 293 289 287 289 288 289 290 289 296 303 299 294 293 292 290 290 288 289 289 290
259 260 262 264 268 271 274 278 282 286 289 292 295 298 301 303 306 311 311 311 311 309 307 304 303 302 303 304 304 306 307 308 310 309 307 304 301 301 305 308 311 316 320 324 326 327 329 332 333 333 332 333 333 333 333 332 325 316 316 314 308 307 303 300 297 294 292 290 289 287 287 289 289 289 288 293 305 301 295 296 294 292 292 290 290 291 289 289
258 259 260 262 264 267 270 273 277 281 284 287 290 292 295 297 300 305 308 307 306 305 304 302 301 299 299 300 301 304 305 307 310 310 309 303 299 298 300 302 304 308 311 314 317 319 321 324 328 328 328 328 326 326 325 327 323 313 314 314 307 305 304 300 297 294 291 290 288 286 288 288 287 287 289 305 310 297 294 295 292 291 291 290 293 292 291 291
258 259 260 261 262 264 266 270 274 277 281 285 286 288 290 292 293 298 302 302 301 300 299 299 297 295 296 296 297 301 303 307 310 311 312 308 303 299 299 301 301 302 304 307 308 310 312 313 318 323 327 325 323 323 322 321 318 310 312 311 306 305 304 301 299 294 290 289 287 286 286 285 284 285 295 321 303 290 290 289 290 291 290 292 293 293 292 292
259 260 261 262 263 264 265 268 271 275 279 282 284 286 286 288 289 290 292 295 295 293 293 293 293 292 292 291 294 297 298 302 307 310 312 310 306 302 300 301 301 301 301 302 304 304 304 305 309 314 319 322 322 321 320 319 314 308 309 307 304 304 302 300 299 296 293 290 287 287 285 283 283 285 299 315 291 288 290 289 291 291 291 293 292 292 291 290
261 262 262 263 264 265 266 267 269 272 275 278 281 283 283 286 287 286 286 287 287 286 286 286 286 287 286 287 289 291 295 298 302 308 310 308 306 304 303 303 303 302 301 301 301 301 299 300 301 305 310 314 318 319 318 317 313 310 308 306 303 302 300 298 296 295 293 290 290 289 286 283 282 288 302 300 291 294 294 293 294 293 293 292 291 291 289 290
262 263 264 265 265 266 266 267 268 269 271 275 277 279 281 283 285 284 282 282 281 280 280 280 280 281 281 281 284 287 290 294 299 303 304 303 303 303 303 305 305 302 301 300 299 299 297 296 296 298 301 304 311 316 314 314 312 309 308 305 303 301 299 297 295 293 292 291 290 290 288 285 284 295 302 294 295 299 296 298 298 297 296 294 294 293 292 292
263 264 264 265 266 266 267 267 267 268 270 272 273 276 277 279 283 283 281 281 279 277 276 276 276 275 275 276 280 283 286 290 295 297 297 298 297 299 303 305 304 302 300 298 297 297 294 293 293 292 294 296 302 306 308 310 310 309 307 306 304 302 301 301 298 294 293 290 288 287 287 289 295 300 296 291 296 298 297 299 300 300 300 299 299 297 295 293
263 264 265 266 266 267 268 268 268 268 269 270 271 273 274 275 278 280 280 280 278 277 275 274 274 273 272 273 276 278 283 287 290 291 293 292 292 298 302 303 302 301 300 297 295 293 292 291 289 289 290 291 293 297 302 307 308 309 307 304 303 302 302 303 301 299 297 292 288 282 280 291 302 300 294 296 297 296 296 298 299 302 303 303 302 300 298 295
262 264 265 266 267 268 268 269 269 269 269 269 270 272 273 273 275 277 278 279 278 277 275 274 273 272 271 272 273 274 277 280 284 287 285 286 292 297 298 299 300 299 298 295 292 290 289 287 286 286 286 287 288 290 295 301 305 307 306 304 303 302 302 303 302 300 300 297 291 281 277 290 301 298 297 298 296 296 295 296 300 303 304 305 305 303 301 298
263 264 265 266 267 268 268 269 269 268 268 269 269 272 273 272 273 275 276 277 278 277 277 275 274 273 273 271 270 272 274 277 279 278 279 286 291 293 294 296 297 296 295 293 291 288 286 285 284 284 283 284 284 285 290 294 299 304 304 304 303 302 302 302 301 300 302 300 294 286 280 289 297 299 298 295 294 293 292 296 300 303 306 306 305 303 301 299
263 264 265 266 267 268 269 269 269 268 267 268 268 270 272 273 273 274 274 276 277 277 277 276 276 274 273 272 270 271 273 273 272 275 281 285 286 288 291 292 293 293 293 292 289 286 285 283 281 281 280 279 279 281 285 288 294 302 303 303 303 303 303 301 301 301 301 299 296 290 285 290 298 300 297 293 290 290 293 297 299 303 307 305 302 300 300 298
262 264 266 267 268 269 270 270 270 270 269 269 269 269 270 272 272 273 274 274 275 277 276 276 276 274 272 272 269 268 269 270 274 278 280 281 283 286 287 288 289 290 290 289 287 285 283 281 280 278 275 274 275 275 276 281 289 295 299 300 301 303 302 301 301 300 298 297 295 290 288 293 298 299 296 293 290 291 296 297 299 304 304 300 298 299 300 297
262 263 265 266 268 269 270 271 272 273 273 273 273 272 271 272 272 272 273 273 273 274 275 275 273 271 271 271 271 271 272 274 275 275 276 278 281 282 283 284 286 287 287 286 285 284 281 280 279 275 274 276 276 272 273 278 284 289 294 295 299 302 300 301 304 300 296 294 292 291 291 293 295 296 297 295 291 292 297 299 300 303 300 296 296 298 301 300
263 263 264 265 267 269 270 271 272 274 276 276 276 276 275 276 275 274 273 272 273 273 272 273 272 271 271 272 274 275 275 275 273 273 275 277 279 279 280 281 283 283 285 285 284 283 280 277 276 277 281 282 274 271 273 275 279 285 289 291 297 299 298 303 305 300 297 294 293 295 293 292 293 295 297 296 291 294 300 301 301 301 297 294 295 298 302 300
263 263 263 264 266 267 269 270 272 274 276 277 278 278 277 278 278 277 275 273 272 272 271 271 271 271 272 273 274 275 277 275 273 274 275 277 277 278 278 279 281 282 284 283 280 279 277 274 278 284 285 277 270 269 271 272 277 281 285 291 294 295 298 304 302 299 299 295 295 297 294 292 293 295 296 293 291 297 301 301 303 301 296 295 296 300 301 294
264 264 263 263 265 266 268 269 271 273 275 276 277 278 278 278 278 279 279 276 271 270 271 270 270 270 272 273 274 275 275 273 273 274 276 277 277 277 279 280 281 282 282 278 275 274 273 276 284 288 278 271 268 268 269 271 274 276 283 289 290 294 300 302 300 299 298 295 296 298 295 293 294 296 296 292 289 295 302 304 307 302 296 297 299 301 300 294
263 263 264 263 264 265 267 269 270 271 272 274 275 277 278 279 280 279 280 279 275 271 269 269 269 271 270 271 272 272 271 272 273 274 276 277 277 278 278 279 279 279 276 273 272 270 271 278 285 281 273 271 268 266 268 269 269 275 283 286 288 294 300 299 299 299 297 296 297 298 297 295 296 296 296 296 287 289 308 310 307 300 298 297 296 301 305 299
260 262 262 263 263 265 267 268 270 271 272 273 274 275 277 279 280 281 281 281 278 274 271 270 270 270 269 269 268 267 268 270 270 272 274 274 276 276 275 277 275 273 271 270 270 267 270 278 278 274 274 273 268 266 268 269 271 277 281 282 286 293 297 297 298 297 295 295 295 301 302 297 298 299 297 298 289 294 309 311 305 301 298 294 292 299 307 302
259 259 259 260 262 263 265 266 268 269 271 272 273 275 276 278 279 282 284 284 282 278 275 275 273 270 268 266 265 266 267 267 268 270 271 272 272 272 272 272 269 267 268 268 268 268 271 275 273 273 273 271 270 270 272 272 274 276 278 281 286 292 296 296 297 296 295 294 294 308 312 300 294 287 277 288 294 299 305 307 306 301 296 293 289 295 305 305
259 259 259 258 258 261 263 264 265 267 269 270 273 274 275 277 279 281 284 285 283 281 281 280 275 270 267 265 264 265 264 265 267 267 267 268 267 267 267 264 262 264 266 268 266 266 270 271 270 270 269 270 271 272 274 274 273 274 277 281 283 289 296 296 295 294 293 288 288 299 301 287 283 276 272 284 295 300 301 307 307 297 297 293 286 292 302 309
261 260 260 258 257 259 261 263 264 264 266 267 269 271 273 275 277 280 285 287 284 284 284 276 269 267 267 266 264 260 258 263 267 265 264 263 261 260 259 259 262 263 265 264 258 263 272 272 270 270 269 268 269 273 277 275 271 271 276 280 282 289 295 294 292 290 288 286 286 290 284 278 280 280 282 287 293 299 302 309 308 301 300 288 283 294 297 307
264 263 262 260 259 260 261 262 263 263 264 265 265 267 269 271 273 276 279 280 283 289 282 260 257 264 266 266 264 257 257 265 267 264 262 258 258 258 258 261 263 263 264 259 257 266 273 269 267 269 268 269 272 276 277 272 268 269 274 278 282 289 291 290 290 288 289 289 285 286 281 268 276 281 287 289 287 296 303 308 313 309 297 280 293 301 292 306
266 265 263 262 261 262 263 262 262 263 263 264 264 264 266 267 270 271 267 253 252 266 260 251 252 262 268 267 265 262 262 264 262 262 263 261 262 262 260 262 261 261 262 261 262 267 268 266 265 265 267 272 275 275 273 269 268 269 275 279 283 287 288 288 288 284 287 285 273 282 276 247 275 279 274 278 282 292 302 308 313 304 276 281 305 303 288 307
267 267 266 264 262 262 263 263 262 263 263 264 265 265 265 266 264 259 248 239 246 255 252 250 254 260 265 266 266 266 265 262 258 259 261 260 261 261 260 260 260 261 262 262 264 265 265 265 264 264 268 272 273 271 271 270 269 271 274 278 282 286 287 287 283 281 286 274 269 281 273 246 268 278 269 277 283 292 302 308 309 279 264 295 307 296 282 307
267 267 267 266 264 263 264 264 263 263 263 263 264 266 265 264 257 242 232 247 254 258 253 251 256 259 263 265 265 265 262 260 259 258 259 259 258 257 256 257 257 258 259 259 263 266 265 264 264 266 269 272 272 269 270 269 270 272 272 275 282 289 294 289 277 270 264 268 277 283 272 240 236 259 275 281 283 292 302 309 300 275 285 301 301 282 280 306
267 267 267 266 265 264 263 264 263 263 263 261 262 263 260 257 247 233 229 244 254 259 251 250 255 256 259 260 259 259 257 257 258 258 259 257 256 256 255 256 256 255 256 260 265 267 265 265 265 267 268 269 269 266 267 267 267 268 267 269 275 295 315 287 249 243 229 258 277 279 269 237 244 261 273 276 279 289 302 308 300 292 296 300 290 276 285 306
266 266 266 265 265 264 262 263 262 260 261 259 258 257 251 245 243 235 230 233 236 246 249 249 251 251 251 250 251 254 254 256 258 257 256 254 254 255 253 253 253 251 254 260 263 264 267 267 263 263 266 266 265 264 265 267 268 268 265 261 250 189 31 273 246 285 259 265 273 268 265 255 261 273 279 280 283 291 300 304 302 297 298 298 288 285 292 305
267 266 265 264 264 263 262 261 260 259 259 255 252 249 237 233 242 240 236 242 246 252 255 256 257 255 252 248 248 251 253 258 259 256 255 253 252 253 252 251 250 250 252 254 256 257 262 266 263 262 263 265 267 267 269 270 267 267 266 258 244 226 215 235 250 251 274 291 281 252 238 254 269 282 285 288 288 289 297 301 299 295 296 295 291 292 296 304
269 267 266 265 263 263 262 259 258 256 254 251 247 238 231 233 240 242 245 251 253 254 256 258 259 256 254 251 250 252 253 256 258 256 254 254 254 257 256 254 253 251 248 245 249 252 251 259 264 262 260 265 270 274 276 269 258 259 258 244 240 242 238 240 260 264 284 309 285 239 243 264 276 282 282 284 284 288 298 299 295 296 296 294 294 297 302 306
270 269 267 265 263 264 263 260 258 254 251 248 239 233 239 244 246 248 252 256 256 258 259 258 257 253 251 253 253 253 252 253 256 255 254 256 258 259 258 258 257 253 249 246 246 247 248 259 268 266 264 269 275 278 275 263 252 253 250 242 245 250 243 236 257 273 281 298 276 259 264 277 283 285 283 282 283 290 298 298 296 298 296 295 299 303 306 307
269 269 268 267 266 265 263 260 256 253 249 243 236 241 248 251 252 253 256 257 257 259 258 254 254 253 252 255 256 256 253 251 252 252 252 255 259 260 260 262 261 256 257 255 248 246 250 261 271 272 271 274 275 273 264 256 253 248 247 251 252 248 238 231 244 292 273 254 274 268 272 281 283 281 283 285 288 293 298 298 297 295 294 298 302 305 307 308
269 268 266 265 265 264 262 259 254 251 247 241 241 248 252 253 254 255 255 256 258 259 255 253 255 256 257 258 258 258 252 247 249 249 251 253 257 262 262 262 263 263 265 258 246 245 246 252 264 267 266 268 268 262 253 251 250 244 248 252 244 229 217 217 209 250 256 173 281 276 276 278 273 269 277 284 290 296 299 298 295 293 295 300 303 305 307 308
267 267 265 263 263 261 258 254 251 248 241 239 244 250 253 253 255 256 257 259 259 257 254 254 256 255 256 257 258 258 254 251 253 252 251 253 256 262 264 262 264 268 268 256 245 245 241 238 251 258 258 259 256 249 245 247 243 236 239 239 234 231 218 217 212 210 237 160 259 282 284 278 274 272 278 286 292 296 297 296 294 294 296 300 304 306 306 306
266 265 265 264 260 257 254 248 243 239 238 242 247 251 253 255 257 259 260 260 258 255 254 256 255 252 254 257 256 258 256 255 255 252 251 254 257 262 265 265 266 267 267 256 243 241 236 231 241 251 253 250 248 250 254 253 246 236 232 229 230 228 218 226 232 224 224 190 239 279 279 275 277 278 282 287 292 293 294 295 294 294 297 300 303 304 304 304
263 262 262 263 259 255 252 244 238 237 239 245 249 251 253 255 258 259 258 256 255 254 253 254 254 252 255 256 256 257 255 254 255 253 252 255 258 261 266 269 269 267 263 252 243 241 233 229 234 241 247 252 256 261 260 255 251 246 243 243 245 239 225 221 242 236 229 223 231 206 260 273 274 275 283 287 290 292 294 294 293 294 297 300 301 301 301 302
256 258 260 262 260 258 253 247 245 242 241 245 249 251 254 256 258 258 257 255 254 253 253 253 254 254 255 255 255 256 255 254 257 255 254 257 260 264 269 271 269 266 263 256 254 252 240 232 232 236 246 257 262 263 259 254 253 250 249 248 249 245 232 219 226 240 233 225 235 226 245 270 272 276 284 287 289 292 294 293 294 296 298 299 300 300 301 302
255 259 260 260 260 258 250 246 246 243 242 247 250 251 253 255 256 257 258 256 254 254 254 255 256 255 255 255 255 255 255 255 256 256 256 260 264 267 268 267 264 262 261 256 254 251 237 227 230 239 248 254 257 260 261 260 253 245 246 244 239 241 240 237 238 243 240 226 225 195 218 265 273 281 284 285 288 292 293 292 293 296 296 298 299 299 301 302
262 263 260 257 256 251 244 244 245 244 246 249 249 248 248 250 252 255 256 256 256 258 258 258 258 257 257 258 257 257 256 254 255 258 259 261 265 267 265 262 261 260 259 258 257 253 240 229 228 235 251 255 255 258 257 253 249 249 252 249 244 246 246 243 240 240 247 239 222 179 231 261 274 282 281 283 289 290 291 290 291 294 295 296 298 298 300 301
262 256 254 255 253 247 246 249 248 247 249 251 251 251 251 251 253 255 257 258 258 259 258 257 258 258 259 259 257 257 256 253 255 259 261 263 264 266 264 261 261 260 260 260 259 255 250 241 233 226 228 243 249 252 250 251 254 253 252 251 251 252 248 243 241 236 238 237 221 216 244 261 273 280 279 281 286 287 289 289 289 292 293 294 296 298 300 301
257 249 247 250 250 248 250 252 248 245 248 250 250 251 251 251 254 255 256 256 257 256 255 255 257 257 257 255 254 255 255 255 255 257 262 264 262 262 263 262 262 261 259 258 256 252 249 246 242 237 237 241 248 256 260 261 260 256 257 260 262 262 257 247 241 238 235 224 225 242 252 260 269 277 279 282 285 287 288 288 288 290 292 294 297 300 302 302
252 247 248 249 247 244 247 249 247 245 247 246 245 249 251 252 253 253 254 255 257 256 255 255 256 254 254 254 253 255 256 255 253 255 260 260 258 260 261 261 261 261 260 259 253 247 242 242 245 246 246 248 254 259 262 262 262 262 265 268 267 268 261 245 239 247 248 230 233 252 256 258 265 274 279 283 287 289 288 288 288 289 292 296 300 302 303 303
249 248 254 255 250 246 247 251 251 250 250 247 247 250 252 253 254 254 255 257 258 257 255 255 255 254 256 258 254 251 252 251 248 251 255 256 256 258 258 260 262 262 261 258 252 246 241 241 247 250 250 252 254 257 258 258 261 263 265 268 268 266 260 249 249 257 255 243 246 257 259 258 265 274 278 282 287 288 287 288 290 291 295 299 301 302 302 303
254 254 257 256 251 249 252 256 258 256 255 254 252 252 253 256 258 258 258 258 258 259 258 258 260 262 263 262 254 245 245 248 249 252 255 256 257 256 257 261 263 262 261 257 253 248 241 242 249 250 249 252 252 253 256 256 260 263 264 267 267 263 259 258 260 263 260 255 257 263 262 261 267 272 275 281 287 285 284 288 291 295 298 299 300 301 301 302
256 256 258 257 252 251 252 253 253 253 255 253 251 253 257 258 259 260 259 258 259 261 260 260 265 268 266 261 252 249 254 258 258 260 261 258 257 257 258 260 260 260 261 257 253 248 244 247 251 250 252 255 253 254 260 262 264 265 266 266 265 262 260 260 261 262 261 259 262 265 264 264 270 273 275 280 285 284 284 288 292 296 299 299 300 301 299 298
256 257 259 258 254 253 254 253 252 251 251 250 251 256 258 258 262 265 263 262 263 262 261 264 269 271 267 261 257 260 268 270 268 271 270 261 257 259 259 258 257 257 257 256 255 250 246 248 248 249 258 261 257 260 267 268 266 263 261 262 262 259 258 259 261 262 261 261 265 265 264 267 274 280 281 283 284 284 285 290 294 298 300 300 300 298 296 292
254 256 255 253 252 253 254 256 255 250 250 255 259 262 262 263 268 268 262 262 264 263 264 268 270 268 264 263 265 271 278 279 278 281 277 265 260 260 260 259 258 258 257 256 255 250 243 242 245 248 257 262 262 266 268 264 261 253 253 258 260 259 259 261 264 265 264 263 263 264 266 272 280 285 284 283 283 283 285 291 295 297 298 298 297 294 290 287
Height
3204 3204 3203 3203 3203 3203 3203 3203 3202 3202 3202 3202 3201 3201 3200 3199 3199 3198 3198 3197 3196 3196 3195 3194 3194 3193 3192 3192 3191 3191 3190 3190 3189 3189 3188 3188 3187 3187 3186 3186 3185 3184 3183 3182 3181 3180 3180 3179 3178 3177 3176 3176 3175 3175 3174 3174 3174 3173 3173 3172 3172 3171 3171 3171 3171 3171 3170 3170 3170 3170 3170 3170 3170 3170 3170 3169 3168 3168 3167 3167 3167 3167 3167 3167 3166 3166 3165 3165
3203 3203 3203 3203 3203 3202 3202 3202 3202 3202 3201 3201 3201 3200 3199 3199 3198 3197 3197 3196 3196 3195 3195 3194 3194 3193 3192 3191 3191 3190 3190 3189 3189 3188 3188 3188 3187 3187 3186 3186 3185 3184 3183 3182 3181 3180 3179 3179 3178 3177 3176 3176 3175 3174 3174 3173 3173 3173 3172 3172 3171 3170 3170 3170 3170 3170 3169 3169 3169 3168 3168 3168 3168 3168 3168 3167 3166 3166 3165 3165 3165 3165 3165 3164 3164 3164 3163 3163
3202 3202 3202 3202 3202 3202 3201 3201 3201 3201 3200 3200 3200 3199 3199 3198 3197 3197 3196 3196 3195 3195 3194 3194 3193 3192 3192 3191 3190 3190 3189 3189 3188 3188 3188 3187 3187 3186 3186 3185 3185 3184 3184 3183 3182 3181 3180 3179 3178 3177 3176 3175 3175 3174 3173 3173 3172 3172 3172 3171 3170 3169 3169 3169 3168 3168 3168 3168 3167 3167 3167 3166 3166 3166 3165 3165 3164 3164 3164 3164 3163 3163 3162 3162 3162 3161 3161 3161
3201 3201 3201 3201 3201 3201 3201 3200 3200 3200 3199 3199 3199 3199 3198 3197 3197 3196 3195 3195 3194 3194 3193 3193 3192 3192 3191 3191 3190 3189 3188 3188 3188 3187 3187 3186 3186 3186 3185 3185 3185 3184 3184 3183 3182 3181 3181 3179 3178 3177 3176 3175 3174 3174 3173 3172 3172 3171 3171 3170 3169 3169 3168 3167 3167 3167 3167 3167 3166 3166 3165 3165 3165 3163 3163 3163 3162 3161 3162 3162 3161 3161 3160 3160 3160 3159 3159 3159
3200 3200 3200 3200 3200 3200 3199 3199 3199 3199 3198 3198 3198 3197 3197 3197 3196 3195 3194 3194 3193 3193 3192 3192 3191 3191 3190 3190 3189 3188 3188 3187 3187 3186 3186 3186 3185 3185 3184 3184 3184 3184 3183 3183 3182 3181 3180 3179 3178 3177 3176 3175 3174 3173 3172 3171 3171 3170 3170 3169 3168 3168 3167 3167 3166 3166 3166 3165 3165 3164 3164 3163 3163 3161 3160 3160 3159 3159 3160 3159 3158 3158 3158 3158 3157 3157 3157 3156
3198 3198 3198 3198 3198 3198 3198 3198 3198 3197 3197 3197 3197 3196 3196 3195 3195 3194 3193 3193 3192 3192 3191 3191 3190 3189 3189 3189 3188 3187 3187 3186 3185 3185 3185 3184 3184 3184 3183 3183 3183 3183 3182 3182 3181 3180 3180 3179 3178 3177 3176 3175 3174 3173 3172 3171 3170 3169 3168 3168 3167 3167 3166 3166 3165 3165 3165 3164 3164 3163 3162 3162 3161 3159 3158 3156 3156 3157 3156 3156 3156 3155 3155 3155 3155 3154 3154 3154
3196 3197 3197 3197 3197 3197 3197 3196 3196 3196 3195 3195 3195 3195 3194 3194 3194 3193 3192 3192 3191 3191 3190 3189 3189 3188 3188 3187 3187 3186 3186 3185 3184 3184 3184 3183 3183 3182 3182 3182 3182 3181 3181 3181 3180 3179 3179 3178 3178 3177 3176 3175 3173 3173 3172 3171 3169 3168 3167 3167 3167 3166 3166 3165 3164 3164 3163 3163 3162 3161 3161 3161 3159 3157 3156 3154 3155 3155 3153 3153 3153 3152 3152 3152 3152 3152 3151 3151
3195 3195 3195 3195 3195 3195 3195 3195 3194 3194 3194 3193 3193 3193 3193 3193 3192 3192 3191 3191 3190 3189 3189 3188 3188 3187 3187 3186 3186 3185 3184 3184 3183 3183 3183 3182 3182 3181 3181 3180 3180 3180 3180 3179 3179 3178 3178 3177 3176 3176 3175 3174 3173 3172 3171 3170 3169 3167 3167 3166 3166 3165 3165 3164 3163 3163 3162 3161 3160 3159 3159 3159 3157 3155 3154 3153 3154 3153 3151 3151 3150 3150 3149 3149 3149 3149 3148 3148
3193 3193 3193 3193 3193 3193 3193 3193 3193 3192 3192 3192 3192 3191 3191 3191 3191 3190 3190 3189 3189 3188 3188 3187 3187 3186 3186 3185 3185 3184 3183 3183 3182 3182 3181 3181 3180 3180 3179 3179 3179 3178 3178 3178 3178 3177 3176 3176 3175 3174 3174 3173 3172 3171 3170 3169 3168 3167 3166 3165 3164 3164 3163 3163 3162 3161 3160 3159 3158 3157 3157 3157 3155 3154 3152 3153 3152 3150 3150 3149 3148 3147 3147 3146 3146 3145 3145 3145
3191 3191 3191 3191 3192 3192 3192 3191 3191 3191 3191 3190 3190 3190 3190 3189 3189 3189 3188 3188 3187 3187 3186 3186 3185 3185 3184 3184 3184 3183 3182 3182 3181 3181 3180 3180 3179 3179 3178 3178 3177 3177 3176 3176 3176 3176 3175 3174 3174 3173 3172 3171 3170 3169 3168 3167 3166 3166 3165 3164 3163 3162 3162 3161 3160 3160 3159 3158 3156 3155 3154 3154 3153 3152 3151 3151 3150 3148 3147 3147 3146 3145 3144 3144 3143 3142 3142 3141
3188 3189 3189 3189 3190 3190 3190 3190 3189 3189 3189 3188 3188 3188 3188 3188 3187 3187 3186 3186 3185 3185 3184 3184 3184 3183 3183 3183 3182 3182 3181 3181 3180 3179 3179 3178 3178 3177 3177 3176 3176 3175 3175 3174 3174 3174 3173 3173 3172 3171 3171 3170 3169 3168 3167 3166 3165 3164 3163 3162 3161 3160 3160 3159 3159 3158 3157 3156 3155 3153 3151 3151 3151 3149 3149 3148 3147 3146 3145 3144 3143 3142 3142 3141 3140 3139 3138 3138
3186 3187 3187 3187 3187 3188 3188 3188 3188 3187 3187 3187 3186 3186 3186 3186 3185 3185 3184 3184 3183 3183 3183 3182 3182 3182 3181 3181 3181 3180 3180 3179 3179 3178 3177 3177 3177 3176 3175 3175 3174 3174 3173 3173 3172 3172 3171 3171 3171 3170 3169 3168 3168 3167 3165 3165 3164 3162 3161 3160 3159 3159 3158 3157 3157 3156 3155 3154 3154 3152 3147 3146 3148 3148 3147 3146 3145 3144 3142 3141 3141 3139 3138 3137 3136 3135 3134 3134
3184 3184 3184 3185 3185 3185 3185 3185 3185 3185 3185 3185 3184 3184 3183 3183 3183 3183 3182 3182 3181 3181 3181 3180 3180 3179 3179 3179 3179 3178 3178 3177 3177 3177 3176 3176 3175 3174 3174 3173 3173 3172 3171 3171 3170 3170 3169 3169 3168 3168 3167 3167 3166 3165 3164 3163 3162 3161 3160 3158 3157 3156 3156 3155 3155 3154 3154 3153 3152 3151 3144 3140 3145 3146 3145 3144 3142 3141 3140 3138 3138 3136 3135 3134 3133 3131 3131 3131
3181 3181 3182 3182 3182 3183 3183 3183 3183 3183 3183 3183 3182 3181 3181 3181 3181 3180 3180 3180 3179 3179 3178 3178 3177 3177 3177 3177 3177 3176 3176 3175 3175 3175 3174 3174 3174 3173 3172 3171 3171 3170 3169 3169 3168 3168 3167 3167 3166 3166 3165 3165 3164 3163 3163 3161 3160 3159 3158 3156 3155 3154 3153 3153 3153 3152 3151 3150 3149 3150 3143 3137 3141 3143 3142 3141 3140 3138 3136 3135 3134 3133 3132 3130 3129 3127 3126 3126
3178 3179 3179 3179 3180 3180 3180 3180 3180 3181 3181 3180 3180 3179 3179 3179 3178 3178 3178 3177 3177 3177 3176 3176 3175 3174 3174 3174 3174 3174 3173 3173 3173 3173 3172 3172 3172 3171 3171 3170 3169 3168 3167 3167 3166 3165 3165 3164 3164 3163 3163 3162 3162 3161 3161 3159 3158 3158 3156 3154 3154 3152 3151 3151 3151 3150 3149 3148 3146 3146 3141 3136 3138 3140 3139 3138 3137 3135 3133 3132 3131 3129 3128 3126 3125 3123 3122 3122
3175 3176 3176 3176 3177 3177 3177 3177 3178 3178 3178 3177 3177 3177 3176 3176 3176 3175 3175 3175 3174 3174 3173 3173 3172 3172 3171 3171 3171 3171 3171 3171 3171 3171 3170 3170 3170 3169 3169 3168 3167 3166 3165 3164 3163 3163 3162 3162 3161 3161 3160 3159 3159 3159 3158 3157 3156 3156 3154 3153 3151 3150 3149 3148 3148 3147 3146 3145 3142 3141 3138 3134 3135 3136 3136 3135 3134 3132 3129 3128 3127 3126 3124 3123 3121 3119 3118 3117
3173 3173 3173 3173 3174 3174 3174 3174 3175 3175 3175 3174 3174 3174 3173 3173 3173 3172 3172 3172 3171 3171 3171 3170 3170 3169 3168 3168 3168 3169 3169 3169 3169 3168 3168 3167 3167 3166 3166 3165 3164 3163 3162 3161 3161 3160 3160 3159 3158 3158 3157 3157 3157 3156 3156 3154 3153 3153 3152 3150 3149 3148 3147 3146 3145 3144 3143 3142 3139 3136 3133 3130 3131 3133 3132 3131 3131 3128 3126 3124 3124 3123 3121 3119 3117 3115 3114 3114
3170 3170 3170 3171 3171 3171 3171 3171 3171 3171 3172 3172 3171 3171 3170 3170 3169 3169 3169 3169 3168 3168 3167 3167 3167 3166 3166 3166 3166 3166 3166 3166 3166 3165 3165 3164 3164 3164 3163 3162 3162 3161 3160 3159 3157 3157 3157 3156 3155 3155 3154 3153 3154 3154 3153 3151 3151 3150 3150 3148 3146 3145 3144 3143 3143 3142 3140 3138 3136 3132 3128 3125 3127 3129 3128 3127 3126 3124 3122 3121 3120 3119 3118 3116 3113 3112 3111 3110
3166 3166 3167 3167 3168 3168 3168 3168 3168 3168 3169 3169 3168 3168 3167 3167 3166 3166 3165 3165 3165 3165 3164 3164 3164 3163 3163 3163 3163 3164 3164 3164 3163 3163 3162 3161 3161 3160 3160 3159 3158 3158 3157 3155 3154 3154 3154 3153 3152 3150 3149 3151 3151 3151 3150 3149 3148 3148 3147 3146 3144 3142 3141 3140 3140 3138 3137 3134 3132 3129 3125 3121 3122 3123 3124 3123 3122 3120 3118 3116 3116 3115 3114 3112 3110 3109 3108 3106
3163 3163 3164 3164 3164 3165 3165 3165 3165 3165 3165 3165 3165 3165 3164 3163 3162 3162 3162 3161 3161 3161 3161 3161 3160 3160 3160 3161 3161 3161 3161 3161 3160 3159 3159 3158 3158 3157 3157 3156 3155 3155 3153 3152 3151 3150 3150 3150 3148 3145 3146 3149 3148 3147 3147 3146 3145 3145 3144 3143 3141 3139 3137 3138 3137 3134 3133 3129 3126 3125 3121 3117 3116 3118 3120 3120 3117 3115 3114 3112 3112 3112 3110 3108 3107 3105 3104 3103
3159 3160 3160 3160 3161 3161 3161 3161 3162 3162 3162 3162 3162 3162 3161 3160 3159 3158 3157 3157 3157 3157 3157 3157 3156 3156 3157 3158 3158 3157 3157 3157 3156 3156 3155 3155 3155 3153 3153 3153 3152 3151 3150 3150 3148 3147 3147 3145 3143 3143 3145 3146 3145 3144 3144 3143 3142 3142 3141 3140 3138 3136 3134 3135 3134 3130 3129 3124 3120 3121 3116 3110 3111 3112 3115 3116 3114 3111 3110 3109 3108 3108 3106 3104 3103 3102 3100 3099
3155 3156 3157 3157 3158 3158 3157 3157 3158 3159 3158 3158 3158 3158 3158 3157 3156 3154 3152 3151 3152 3153 3152 3152 3152 3152 3153 3154 3154 3154 3153 3152 3152 3152 3152 3151 3151 3150 3149 3149 3148 3148 3147 3146 3144 3144 3143 3141 3141 3142 3142 3142 3142 3141 3141 3140 3139 3139 3139 3137 3135 3133 3132 3131 3131 3127 3125 3121 3116 3116 3110 3103 3105 3107 3107 3109 3109 3109 3107 3106 3105 3103 3102 3100 3099 3098 3096 3095
3151 3152 3153 3153 3154 3154 3154 3154 3155 3155 3155 3155 3155 3155 3154 3153 3152 3151 3149 3145 3144 3147 3148 3148 3148 3148 3149 3149 3149 3150 3148 3148 3148 3148 3149 3147 3147 3146 3145 3145 3145 3144 3144 3142 3141 3141 3139 3138 3139 3139 3139 3139 3139 3138 3138 3136 3135 3136 3136 3134 3131 3132 3130 3127 3126 3125 3122 3118 3113 3111 3103 3095 3097 3099 3100 3102 3102 3105 3106 3103 3102 3100 3098 3097 3095 3094 3093 3092
3147 3148 3149 3149 3150 3151 3150 3151 3151 3152 3152 3152 3152 3151 3150 3150 3149 3147 3145 3140 3137 3140 3142 3143 3144 3144 3145 3145 3144 3144 3143 3143 3144 3144 3145 3143 3142 3142 3140 3141 3141 3140 3140 3139 3138 3137 3136 3137 3136 3136 3136 3135 3135 3135 3135 3133 3132 3132 3133 3131 3128 3129 3129 3124 3123 3121 3119 3117 3113 3110 3098 3084 3087 3092 3092 3097 3097 3099 3102 3100 3099 3097 3095 3094 3092 3091 3090 3089
3143 3144 3144 3146 3147 3147 3146 3146 3147 3148 3149 3148 3148 3148 3147 3146 3145 3144 3142 3136 3129 3132 3136 3137 3138 3138 3139 3139 3139 3140 3138 3138 3139 3139 3139 3139 3138 3137 3137 3138 3136 3136 3136 3135 3134 3132 3134 3135 3132 3133 3133 3132 3132 3132 3132 3131 3129 3128 3129 3129 3127 3126 3125 3122 3121 3118 3116 3114 3112 3114 3102 3078 3077 3087 3087 3091 3094 3094 3097 3097 3096 3094 3092 3090 3089 3088 3088 3086
3139 3139 3140 3141 3142 3143 3142 3142 3144 3144 3144 3145 3145 3145 3144 3143 3143 3141 3139 3132 3123 3125 3130 3132 3132 3132 3133 3133 3134 3135 3133 3132 3134 3134 3134 3135 3134 3133 3133 3133 3133 3133 3133 3132 3131 3128 3130 3131 3129 3129 3129 3129 3129 3128 3129 3129 3126 3124 3124 3126 3125 3123 3122 3120 3119 3117 3114 3111 3109 3117 3114 3084 3069 3079 3083 3086 3089 3089 3092 3094 3092 3091 3089 3087 3087 3086 3085 3084
3134 3135 3135 3137 3138 3139 3138 3138 3140 3140 3141 3142 3141 3141 3141 3140 3140 3139 3138 3130 3119 3119 3125 3126 3126 3126 3127 3128 3130 3130 3128 3127 3130 3130 3130 3130 3129 3130 3129 3129 3130 3129 3129 3129 3126 3125 3127 3127 3127 3126 3126 3126 3126 3125 3126 3127 3124 3121 3120 3122 3122 3120 3119 3116 3116 3115 3111 3108 3105 3111 3117 3095 3065 3064 3075 3078 3083 3085 3087 3090 3088 3087 3086 3084 3084 3083 3082 3081
3129 3130 3131 3132 3134 3134 3133 3134 3136 3136 3137 3137 3137 3138 3137 3137 3137 3136 3137 3129 3116 3115 3119 3121 3122 3122 3124 3125 3125 3126 3125 3125 3127 3126 3127 3127 3126 3126 3125 3126 3127 3125 3126 3125 3121 3122 3123 3123 3124 3123 3123 3123 3122 3123 3123 3123 3121 3118 3117 3118 3118 3117 3116 3114 3113 3113 3109 3105 3102 3103 3111 3100 3065 3054 3069 3072 3075 3081 3082 3085 3085 3083 3082 3081 3081 3080 3078 3078
3125 3125 3126 3128 3129 3129 3129 3130 3131 3132 3133 3133 3133 3133 3133 3134 3133 3133 3133 3124 3112 3113 3116 3117 3120 3121 3121 3122 3122 3123 3123 3123 3123 3123 3124 3124 3122 3122 3122 3122 3123 3121 3122 3120 3118 3120 3119 3118 3120 3119 3120 3119 3119 3120 3119 3119 3118 3115 3115 3114 3115 3114 3112 3113 3110 3109 3109 3100 3095 3096 3102 3098 3065 3048 3063 3068 3068 3076 3077 3080 3081 3079 3079 3078 3077 3075 3074 3074
3120 3120 3121 3122 3124 3125 3125 3126 3127 3128 3129 3129 3129 3129 3129 3129 3129 3130 3124 3112 3108 3111 3113 3114 3116 3118 3118 3119 3119 3120 3120 3120 3120 3120 3120 3120 3119 3119 3118 3119 3119 3118 3118 3116 3115 3116 3115 3115 3115 3115 3116 3116 3116 3116 3115 3115 3114 3112 3113 3111 3112 3111 3109 3110 3106 3106 3107 3093 3087 3090 3091 3094 3070 3045 3054 3062 3062 3070 3073 3075 3076 3074 3075 3075 3073 3071 3070 3070
3115 3116 3117 3117 3119 3120 3120 3121 3122 3124 3125 3125 3126 3126 3126 3125 3125 3121 3108 3101 3106 3108 3107 3110 3112 3113 3115 3115 3115 3116 3116 3115 3116 3116 3116 3115 3115 3114 3114 3116 3116 3115 3114 3112 3111 3112 3111 3110 3111 3111 3113 3113 3112 3112 3111 3111 3110 3109 3110 3109 3110 3109 3107 3106 3102 3105 3103 3086 3082 3085 3084 3088 3068 3043 3049 3057 3057 3064 3068 3070 3071 3071 3071 3071 3069 3068 3067 3066
3111 3111 3111 3113 3114 3116 3116 3116 3118 3120 3120 3121 3123 3122 3122 3121 3114 3103 3096 3100 3106 3103 3102 3107 3107 3108 3111 3110 3110 3111 3111 3111 3112 3112 3112 3111 3110 3109 3111 3111 3112 3112 3109 3107 3108 3108 3106 3106 3107 3108 3109 3109 3108 3108 3108 3106 3106 3106 3106 3108 3110 3110 3109 3105 3099 3100 3096 3084 3080 3080 3081 3076 3053 3039 3048 3054 3053 3059 3063 3065 3066 3066 3067 3066 3065 3064 3063 3062
3105 3105 3106 3107 3109 3110 3111 3111 3113 3115 3115 3117 3118 3116 3119 3115 3096 3085 3092 3100 3101 3099 3100 3103 3103 3105 3107 3105 3105 3107 3107 3107 3108 3108 3107 3106 3104 3104 3106 3107 3108 3108 3105 3104 3105 3104 3102 3100 3102 3104 3104 3104 3103 3104 3103 3101 3102 3102 3102 3106 3107 3109 3111 3104 3097 3095 3088 3080 3077 3079 3079 3062 3039 3036 3044 3046 3050 3055 3057 3059 3060 3060 3061 3061 3061 3060 3059 3058
3099 3100 3100 3101 3103 3105 3105 3107 3108 3109 3110 3111 3111 3111 3112 3100 3081 3079 3089 3093 3095 3098 3099 3100 3102 3102 3101 3100 3101 3102 3104 3104 3103 3104 3103 3101 3099 3098 3099 3101 3102 3104 3103 3103 3101 3101 3100 3094 3095 3100 3099 3098 3099 3100 3100 3099 3099 3098 3100 3103 3101 3102 3104 3097 3092 3089 3082 3077 3074 3076 3072 3048 3032 3034 3036 3039 3045 3049 3052 3053 3053 3054 3055 3056 3055 3055 3055 3053
3094 3094 3095 3096 3098 3099 3100 3101 3102 3103 3104 3104 3105 3105 3096 3080 3074 3079 3084 3086 3093 3096 3095 3097 3098 3097 3096 3095 3096 3099 3101 3100 3098 3099 3097 3095 3093 3091 3092 3095 3097 3099 3099 3099 3098 3098 3096 3088 3089 3094 3094 3095 3096 3096 3097 3097 3095 3095 3096 3097 3094 3093 3095 3093 3090 3085 3084 3081 3070 3065 3055 3035 3030 3031 3030 3036 3040 3042 3047 3047 3046 3049 3049 3050 3049 3049 3049 3047
3088 3088 3089 3089 3092 3094 3094 3096 3096 3097 3097 3098 3099 3092 3076 3068 3073 3077 3078 3083 3088 3090 3092 3093 3092 3091 3091 3090 3092 3094 3096 3095 3094 3093 3091 3089 3087 3084 3085 3088 3091 3093 3093 3093 3093 3092 3090 3085 3085 3089 3089 3092 3093 3092 3093 3092 3091 3093 3090 3088 3087 3089 3091 3092 3089 3085 3087 3084 3065 3052 3043 3029 3027 3024 3021 3031 3034 3035 3041 3040 3040 3043 3043 3043 3043 3043 3044 3042
3082 3082 3082 3083 3086 3088 3088 3090 3091 3090 3090 3092 3089 3076 3065 3067 3072 3074 3075 3079 3082 3086 3089 3087 3085 3085 3085 3084 3084 3087 3090 3091 3088 3086 3086 3084 3080 3076 3078 3081 3084 3086 3086 3087 3088 3088 3088 3085 3083 3084 3085 3088 3088 3087 3087 3086 3087 3087 3083 3082 3084 3088 3089 3090 3090 3086 3087 3084 3063 3046 3041 3030 3021 3017 3016 3023 3028 3029 3033 3034 3034 3036 3036 3037 3037 3037 3037 3035
3076 3075 3074 3076 3080 3081 3082 3084 3083 3082 3084 3084 3077 3066 3062 3065 3067 3069 3072 3074 3077 3082 3082 3080 3079 3079 3079 3078 3078 3081 3085 3084 3081 3081 3080 3078 3072 3068 3072 3076 3077 3080 3082 3084 3084 3084 3086 3084 3080 3079 3080 3081 3082 3080 3079 3079 3080 3079 3077 3079 3081 3082 3083 3085 3087 3083 3080 3081 3064 3043 3039 3025 3009 3011 3016 3019 3023 3024 3027 3028 3027 3028 3029 3030 3030 3031 3030 3028
3070 3067 3064 3069 3074 3073 3074 3076 3075 3077 3077 3072 3064 3059 3057 3059 3061 3065 3068 3069 3073 3075 3073 3072 3074 3074 3073 3073 3073 3076 3078 3076 3076 3076 3074 3071 3067 3063 3067 3072 3073 3076 3078 3079 3079 3078 3080 3079 3075 3072 3072 3074 3072 3070 3070 3069 3071 3072 3072 3074 3074 3076 3078 3077 3078 3074 3071 3075 3064 3048 3037 3010 2992 3005 3014 3016 3020 3021 3022 3022 3021 3022 3023 3023 3025 3024 3024 3022
3063 3059 3055 3061 3066 3065 3065 3067 3067 3068 3064 3059 3056 3053 3052 3054 3057 3061 3063 3064 3066 3066 3065 3066 3068 3069 3067 3068 3069 3071 3071 3070 3070 3070 3068 3066 3062 3060 3063 3067 3069 3072 3073 3073 3073 3073 3075 3074 3071 3069 3068 3066 3061 3058 3058 3057 3060 3063 3065 3067 3068 3070 3073 3071 3070 3068 3066 3068 3063 3056 3039 2998 2982 3001 3009 3011 3016 3016 3017 3017 3015 3017 3018 3018 3020 3019 3018 3017
3055 3051 3047 3051 3055 3056 3058 3057 3056 3057 3053 3050 3049 3047 3047 3049 3052 3055 3056 3057 3057 3058 3059 3061 3062 3063 3062 3063 3064 3064 3066 3064 3063 3064 3062 3059 3059 3058 3059 3062 3064 3066 3067 3068 3067 3067 3069 3068 3067 3067 3062 3057 3052 3051 3051 3051 3053 3056 3057 3059 3060 3062 3066 3067 3066 3061 3059 3060 3053 3053 3040 2996 2977 2997 3004 3006 3011 3010 3011 3011 3008 3011 3013 3013 3015 3014 3013 3012
3045 3042 3041 3044 3046 3049 3050 3048 3049 3050 3044 3040 3041 3042 3044 3045 3046 3047 3049 3051 3051 3051 3054 3054 3055 3056 3056 3057 3057 3059 3061 3059 3057 3056 3054 3053 3054 3054 3056 3059 3059 3060 3062 3063 3062 3063 3064 3063 3063 3062 3059 3055 3050 3047 3046 3047 3050 3052 3053 3053 3055 3058 3058 3059 3057 3050 3050 3051 3042 3048 3041 2994 2971 2994 3004 3002 3006 3006 3006 3005 3002 3005 3007 3007 3009 3007 3007 3006
3037 3037 3038 3039 3039 3039 3039 3039 3041 3040 3034 3033 3037 3038 3039 3038 3038 3040 3042 3044 3045 3045 3046 3045 3046 3048 3049 3051 3052 3053 3054 3052 3049 3048 3048 3049 3048 3049 3053 3054 3054 3056 3058 3057 3057 3059 3061 3060 3060 3059 3057 3053 3047 3043 3041 3042 3045 3047 3045 3046 3048 3049 3049 3049 3048 3043 3042 3039 3034 3046 3039 2990 2970 2993 3000 2997 3002 3003 3000 2999 2998 2999 3000 3001 3002 3001 3001 3000
3031 3032 3032 3033 3032 3030 3027 3027 3029 3028 3027 3030 3032 3032 3033 3032 3032 3033 3034 3036 3038 3039 3038 3037 3038 3041 3043 3045 3046 3046 3047 3045 3042 3041 3044 3043 3040 3041 3045 3047 3049 3051 3051 3051 3052 3055 3055 3055 3056 3057 3055 3050 3042 3038 3037 3037 3039 3039 3038 3040 3042 3043 3046 3045 3043 3041 3036 3026 3027 3039 3025 2985 2976 2993 2993 2993 2999 2996 2994 2994 2993 2994 2995 2995 2996 2995 2995 2994
3026 3024 3023 3025 3024 3021 3019 3020 3022 3021 3023 3026 3025 3026 3027 3026 3026 3028 3028 3030 3032 3032 3031 3030 3032 3034 3037 3039 3039 3038 3039 3039 3037 3037 3038 3036 3033 3034 3036 3040 3043 3044 3044 3046 3047 3048 3048 3047 3048 3049 3046 3042 3034 3029 3030 3032 3034 3033 3032 3034 3036 3038 3040 3037 3036 3034 3025 3018 3023 3026 3005 2980 2983 2991 2988 2991 2995 2990 2989 2990 2989 2990 2990 2989 2990 2990 2989 2988
3019 3015 3015 3017 3016 3013 3012 3015 3017 3016 3017 3019 3017 3018 3020 3019 3020 3022 3022 3022 3023 3024 3024 3025 3027 3029 3030 3031 3031 3030 3030 3031 3032 3032 3030 3027 3026 3028 3029 3033 3036 3037 3039 3041 3041 3042 3040 3038 3037 3035 3031 3029 3025 3023 3026 3029 3028 3027 3026 3028 3031 3030 3030 3031 3028 3018 3013 3017 3017 3005 2989 2982 2987 2986 2982 2986 2988 2985 2985 2987 2986 2986 2985 2984 2984 2983 2982 2981
3011 3006 3006 3009 3008 3005 3005 3008 3009 3009 3011 3011 3009 3010 3011 3011 3013 3016 3016 3016 3017 3018 3019 3019 3020 3020 3020 3022 3022 3021 3021 3024 3025 3023 3020 3020 3022 3023 3024 3026 3029 3031 3033 3034 3035 3035 3032 3029 3028 3026 3023 3023 3022 3022 3024 3024 3022 3022 3022 3023 3024 3022 3023 3022 3013 3005 3011 3014 2999 2984 2985 2989 2988 2980 2976 2979 2980 2979 2981 2982 2981 2981 2980 2979 2979 2977 2975 2974
3004 2999 2999 3002 3000 2996 2996 2999 3000 3002 3004 3004 3003 3004 3005 3005 3006 3008 3009 3011 3011 3012 3012 3011 3011 3011 3012 3015 3014 3012 3015 3018 3016 3013 3012 3015 3019 3019 3020 3022 3024 3025 3026 3027 3028 3027 3024 3021 3020 3019 3017 3017 3018 3018 3019 3019 3018 3018 3018 3017 3016 3015 3014 3010 3003 3001 3005 2994 2977 2977 2989 2991 2983 2973 2971 2975 2975 2974 2976 2976 2974 2975 2975 2974 2973 2970 2967 2967
3000 2996 2996 2996 2992 2989 2990 2994 2996 2995 2996 2998 2996 2996 2999 2998 2998 3000 3003 3005 3004 3004 3006 3003 3001 3003 3004 3007 3007 3006 3009 3009 3005 3005 3008 3011 3013 3014 3016 3018 3019 3019 3020 3020 3021 3022 3018 3014 3014 3015 3011 3010 3011 3010 3012 3015 3014 3011 3013 3012 3007 3006 3007 3004 2998 2993 2988 2978 2974 2981 2987 2983 2974 2965 2967 2973 2973 2970 2971 2970 2969 2970 2970 2969 2967 2963 2960 2960
2995 2993 2994 2991 2986 2985 2987 2989 2990 2987 2987 2990 2988 2987 2990 2989 2990 2994 2996 2997 2996 2996 2997 2995 2995 2998 2998 2999 3002 3000 3000 3000 2999 3002 3006 3006 3007 3009 3010 3012 3012 3013 3015 3014 3014 3015 3012 3008 3010 3011 3006 3002 3002 3002 3006 3010 3007 3007 3009 3004 2997 3000 3003 2998 2988 2979 2976 2977 2979 2981 2979 2970 2960 2959 2967 2972 2968 2966 2966 2965 2965 2965 2964 2964 2961 2957 2955 2953
2989 2989 2991 2986 2979 2980 2981 2981 2982 2980 2978 2980 2978 2979 2982 2980 2983 2989 2987 2987 2989 2989 2989 2989 2992 2995 2994 2992 2994 2992 2990 2993 2995 2997 3000 3000 3001 3003 3003 3004 3005 3005 3007 3007 3007 3008 3007 3004 3004 3006 3000 2994 2994 2996 3000 3003 3002 3003 3000 2989 2987 2995 2995 2986 2976 2972 2975 2979 2978 2977 2970 2955 2949 2957 2966 2965 2961 2960 2960 2960 2959 2958 2957 2956 2953 2950 2949 2947
2985 2984 2985 2981 2972 2971 2974 2974 2974 2971 2967 2969 2970 2972 2973 2973 2979 2984 2980 2978 2981 2982 2984 2986 2987 2989 2987 2985 2985 2985 2986 2989 2990 2991 2994 2994 2994 2995 2995 2995 2997 2998 2999 3000 3000 3000 3001 2998 2998 3000 2994 2987 2990 2993 2994 2997 2998 2991 2982 2978 2982 2987 2985 2977 2970 2968 2975 2979 2975 2969 2958 2948 2951 2959 2959 2955 2953 2954 2954 2954 2952 2951 2950 2948 2944 2943 2942 2940